Regional Weather Roundup
Issued by NWS State College, PA

Home | Current Version | Previous Version | Text Only | Print | Product List | Glossary On
Versions: 1 2 3 4 5 6 7 8 9 10 11 12 13 14 15 16 17 18 19 20 21 22 23 24 25 26 27 28 29 30 31 32 33 34 35 36 37 38 39 40 41 42 43 44 45 46 47 48 49 50
000
ASUS41 KCTP 191610
RWRCTP
REGIONAL WEATHER ROUNDUP
NATIONAL WEATHER SERVICE STATE COLLEGE PA
1200 PM EDT TUE SEP 19 2017

Note: "fair" indicates few or no clouds below 12,000 feet with no
significant weather and/or obstructions to visibility.

* = STATION THAT DOES NOT REPORT PRECIPITATION /E.G. RAIN...SNOW...ETC/
    THUNDER OR FOG.

PAZ002>004-007>009-013>016-020>023-029>032-191700-
WESTERN PENNSYLVANIA

CITY           SKY/WX    TMP DP  RH WIND       PRES   REMARKS
ERIE           MOSUNNY   77  65  66 S12       30.02F
MEADVILLE      MOSUNNY   74  64  71 VRB6      30.06F
FRANKLIN*      MOSUNNY   73  64  73 VRB7      30.08S
NEW CASTLE     FAIR      78  65  63 VRB3      30.05F
BEAVER COUNTY  SUNNY     77  63  61 S7        30.06S
BUTLER*        SUNNY     74  64  71 VRB5      30.06F
PITTSBURGH INT MOSUNNY   77  64  64 E7        30.05S
PITTSBURGH     SUNNY     74  62  66 VRB3      30.04F
INDIANA*       MOSUNNY   73  63  68 CALM      30.09F
LATROBE        SUNNY     73  63  68 CALM      30.07S
WASHINGTON CO* SUNNY     75  64  69 SE6       30.05F
$$

PAZ004>006-010>012-017>019-024>028-033>037-041-042-045-046-049>053-191700-
CENTRAL PENNSYLVANIA

CITY           SKY/WX    TMP DP  RH WIND       PRES   REMARKS
BRADFORD       PTSUNNY   70  60  70 CALM      30.10F
DUBOIS         MOSUNNY   69  58  67 CALM      30.09F
CLEARFIELD     PTSUNNY   72  60  66 NE5       30.09F
JOHNSTOWN      MOSUNNY   70  60  70 VRB3      30.10S
ALTOONA        CLOUDY    69  62  78 E3        30.09F
STATE COLLEGE  CLOUDY    68  61  77 CALM      30.08F
WILLIAMSPORT   CLOUDY    73  63  70 W3        30.04F
SELINSGROVE    CLOUDY    70  64  81 N6        30.06F
FT INDIANTOWN  PTSUNNY   72  67  83 NW8       30.03F
CAPITAL CITY   CLOUDY    73  64  73 NW8       30.03F
HARRISBURG     CLOUDY    74  67  78 NW10      30.02F
YORK           CLOUDY    73  67  81 N6        30.03F
$$

PAZ038>040-043-044-047-048-054-055-060>062-067>071-191700-
EASTERN PENNSYLVANIA

CITY           SKY/WX    TMP DP  RH WIND       PRES   REMARKS
SCRANTON       CLOUDY    74  63  68 NE9       30.06F
MOUNT POCONO   PTSUNNY   71  64  78 E13       30.08
ALLENTOWN      MOSUNNY   76  66  71 NE16      30.01F
QUAKERTOWN*    MOSUNNY   75  66  73 NE9G17    30.01F
READING        PTSUNNY   77  68  73 N10       29.99F
LANCASTER      PTSUNNY   75  68  78 NE10      30.01F
COATESVILLE    MOSUNNY   75  68  78 NE6G15    30.01F
POTTSTOWN      MOSUNNY   76  68  76 N13       30.00F
BLUE BELL      MOSUNNY   77  64  65 E10G18    29.98F
DOYLESTOWN     NOT AVBL
WILLOW GROVE   NOT AVBL
NORTH PHILA    PTSUNNY   78  66  66 NE18G24   29.97F
PHILADELPHIA   PTSUNNY   78  64  61 NE17G31   29.95F
$$




USA.gov is the U.S. government's official web portal to all federal, state and local government web resources and services.